Wetterdaten: Freitag, 10.04.2015
Datum Zeit Auen-Temp. Temp gefhlt Luftfeuchte Luftdruck Regen Wind Richtung Richtung Taupunkt Windben
10.04.2015 00:00 3,6 C 3,1 C 71 % 1025,1 hPa 0,0 mm 0,0 km/h (0 Bft) NO 45 -1,2 C 0,0 km/h (0 Bft)
10.04.2015 00:05 3,5 C 3,1 C 70 % 1024,9 hPa 0,0 mm 0,0 km/h (0 Bft) NO 45 -1,4 C 0,0 km/h (0 Bft)
10.04.2015 00:10 3,1 C 2,7 C 70 % 1024,9 hPa 0,0 mm 0,0 km/h (0 Bft) O-NO 67 -1,8 C 0,0 km/h (0 Bft)
10.04.2015 00:15 2,9 C 2,5 C 71 % 1024,9 hPa 0,0 mm 0,0 km/h (0 Bft) NO 45 -1,8 C 0,0 km/h (0 Bft)
10.04.2015 00:20 3,1 C 2,6 C 70 % 1024,9 hPa 0,0 mm 0,0 km/h (0 Bft) O-NO 67 -1,8 C 0,0 km/h (0 Bft)
10.04.2015 00:25 2,9 C 2,4 C 71 % 1025,1 hPa 0,0 mm 0,0 km/h (0 Bft) NO 45 -1,8 C 0,0 km/h (0 Bft)
10.04.2015 00:30 2,6 C 2,2 C 71 % 1025,1 hPa 0,0 mm 0,0 km/h (0 Bft) O-NO 67 -2,1 C 0,0 km/h (0 Bft)
10.04.2015 00:35 2,5 C 2,0 C 72 % 1025,1 hPa 0,0 mm 0,0 km/h (0 Bft) O-NO 67 -2,0 C 0,0 km/h (0 Bft)
10.04.2015 00:40 2,4 C 1,9 C 72 % 1025,1 hPa 0,0 mm 0,0 km/h (0 Bft) NO 45 -2,1 C 0,0 km/h (0 Bft)
10.04.2015 00:45 2,1 C 1,7 C 72 % 1024,9 hPa 0,0 mm 0,0 km/h (0 Bft) O-NO 67 -2,4 C 0,0 km/h (0 Bft)
10.04.2015 00:50 2,2 C 1,8 C 72 % 1024,9 hPa 0,0 mm 0,0 km/h (0 Bft) O-NO 67 -2,3 C 0,0 km/h (0 Bft)
10.04.2015 00:55 2,5 C 2,0 C 74 % 1024,9 hPa 0,0 mm 0,0 km/h (0 Bft) O 90 -1,7 C 0,0 km/h (0 Bft)
10.04.2015 01:00 2,7 C 2,2 C 69 % 1024,9 hPa 0,0 mm 0,0 km/h (0 Bft) O-NO 67 -2,4 C 0,0 km/h (0 Bft)
10.04.2015 01:05 2,5 C 2,0 C 73 % 1024,9 hPa 0,0 mm 0,0 km/h (0 Bft) O-NO 67 -1,8 C 0,0 km/h (0 Bft)
10.04.2015 01:10 2,5 C 2,0 C 73 % 1024,9 hPa 0,0 mm 0,0 km/h (0 Bft) NO 45 -1,8 C 0,0 km/h (0 Bft)
10.04.2015 01:15 2,5 C 2,0 C 73 % 1024,9 hPa 0,0 mm 0,0 km/h (0 Bft) NO 45 -1,8 C 0,0 km/h (0 Bft)
10.04.2015 01:20 2,1 C 1,7 C 73 % 1024,9 hPa 0,0 mm 0,0 km/h (0 Bft) NO 45 -2,2 C 0,0 km/h (0 Bft)
10.04.2015 01:25 2,2 C 1,7 C 73 % 1024,8 hPa 0,0 mm 0,0 km/h (0 Bft) NW 315 -2,1 C 0,0 km/h (0 Bft)
10.04.2015 01:30 2,1 C 1,6 C 73 % 1024,8 hPa 0,0 mm 0,0 km/h (0 Bft) N-NW 337 -2,2 C 0,0 km/h (0 Bft)
10.04.2015 01:35 2,0 C 1,5 C 73 % 1024,8 hPa 0,0 mm 0,0 km/h (0 Bft) N-NW 337 -2,3 C 0,0 km/h (0 Bft)
10.04.2015 01:40 1,8 C 1,4 C 73 % 1024,8 hPa 0,0 mm 0,0 km/h (0 Bft) N-NO 22 -2,5 C 0,0 km/h (0 Bft)
10.04.2015 01:45 1,6 C 1,2 C 73 % 1024,8 hPa 0,0 mm 0,0 km/h (0 Bft) N-NO 22 -2,7 C 0,0 km/h (0 Bft)
10.04.2015 01:50 2,1 C 1,5 C 74 % 1024,8 hPa 0,0 mm 0,0 km/h (0 Bft) O-NO 67 -2,0 C 0,0 km/h (0 Bft)
10.04.2015 01:55 1,5 C 1,1 C 73 % 1024,8 hPa 0,0 mm 0,0 km/h (0 Bft) NO 45 -2,8 C 0,0 km/h (0 Bft)
10.04.2015 02:00 1,3 C 0,9 C 73 % 1024,8 hPa 0,0 mm 0,0 km/h (0 Bft) NO 45 -3,0 C 0,0 km/h (0 Bft)
10.04.2015 02:05 1,6 C 1,1 C 74 % 1024,7 hPa 0,0 mm 0,0 km/h (0 Bft) O-NO 67 -2,5 C 0,0 km/h (0 Bft)
10.04.2015 02:10 1,6 C 1,1 C 75 % 1024,7 hPa 0,0 mm 0,0 km/h (0 Bft) O 90 -2,3 C 0,0 km/h (0 Bft)
10.04.2015 02:15 2,0 C 1,3 C 75 % 1024,7 hPa 0,0 mm 0,0 km/h (0 Bft) O-NO 67 -2,0 C 0,0 km/h (0 Bft)
10.04.2015 02:20 1,9 C 1,3 C 75 % 1024,7 hPa 0,0 mm 0,0 km/h (0 Bft) O-SO 112 -2,1 C 0,0 km/h (0 Bft)
10.04.2015 02:25 1,4 C 0,9 C 75 % 1024,4 hPa 0,0 mm 0,0 km/h (0 Bft) S 180 -2,5 C 0,0 km/h (0 Bft)
10.04.2015 02:30 1,3 C 0,8 C 74 % 1024,4 hPa 0,0 mm 0,0 km/h (0 Bft) S 180 -2,8 C 0,0 km/h (0 Bft)
10.04.2015 02:35 1,2 C 0,7 C 74 % 1024,4 hPa 0,0 mm 0,0 km/h (0 Bft) W-NW 292 -2,9 C 0,0 km/h (0 Bft)
10.04.2015 02:40 1,1 C 0,6 C 74 % 1024,4 hPa 0,0 mm 0,0 km/h (0 Bft) NW 315 -3,0 C 0,0 km/h (0 Bft)
10.04.2015 02:45 1,4 C 0,7 C 75 % 1024,5 hPa 0,0 mm 0,0 km/h (0 Bft) W-SW 247 -2,5 C 0,0 km/h (0 Bft)
10.04.2015 02:50 1,3 C 0,7 C 75 % 1024,5 hPa 0,0 mm 0,0 km/h (0 Bft) S-SW 202 -2,6 C 0,0 km/h (0 Bft)
10.04.2015 02:55 1,1 C 0,6 C 74 % 1024,5 hPa 0,0 mm 0,0 km/h (0 Bft) N-NW 337 -3,0 C 0,0 km/h (0 Bft)
10.04.2015 03:00 0,9 C 0,4 C 74 % 1024,5 hPa 0,0 mm 0,0 km/h (0 Bft) N-NW 337 -3,2 C 0,0 km/h (0 Bft)
10.04.2015 03:05 0,9 C 0,4 C 75 % 1024,4 hPa 0,0 mm 0,0 km/h (0 Bft) N-NW 337 -3,0 C 0,0 km/h (0 Bft)
10.04.2015 03:10 1,0 C 0,4 C 75 % 1024,4 hPa 0,0 mm 0,0 km/h (0 Bft) NO 45 -2,9 C 0,0 km/h (0 Bft)
10.04.2015 03:15 0,8 C 0,3 C 75 % 1024,4 hPa 0,0 mm 0,0 km/h (0 Bft) NO 45 -3,1 C 0,0 km/h (0 Bft)
10.04.2015 03:20 0,8 C 0,3 C 75 % 1024,4 hPa 0,0 mm 0,0 km/h (0 Bft) N-NO 22 -3,1 C 0,0 km/h (0 Bft)
10.04.2015 03:25 1,0 C 0,4 C 75 % 1024,2 hPa 0,0 mm 0,0 km/h (0 Bft) O-NO 67 -2,9 C 0,0 km/h (0 Bft)
10.04.2015 03:30 0,8 C 0,2 C 75 % 1024,2 hPa 0,0 mm 0,0 km/h (0 Bft) O-NO 67 -3,1 C 0,0 km/h (0 Bft)
10.04.2015 03:35 1,1 C 0,4 C 75 % 1024,2 hPa 0,0 mm 0,0 km/h (0 Bft) O-NO 67 -2,8 C 0,0 km/h (0 Bft)
10.04.2015 03:40 1,0 C 0,4 C 76 % 1024,2 hPa 0,0 mm 0,0 km/h (0 Bft) O-NO 67 -2,7 C 0,0 km/h (0 Bft)
10.04.2015 03:45 1,0 C 0,4 C 76 % 1024,1 hPa 0,0 mm 0,0 km/h (0 Bft) N-NW 337 -2,7 C 0,0 km/h (0 Bft)
10.04.2015 03:50 0,8 C 0,3 C 76 % 1024,1 hPa 0,0 mm 0,0 km/h (0 Bft) O-NO 67 -2,9 C 0,0 km/h (0 Bft)
10.04.2015 03:55 0,8 C 0,3 C 76 % 1024,1 hPa 0,0 mm 0,0 km/h (0 Bft) NW 315 -2,9 C 0,0 km/h (0 Bft)
10.04.2015 04:00 0,8 C 0,2 C 76 % 1024,1 hPa 0,0 mm 0,0 km/h (0 Bft) O-NO 67 -2,9 C 0,0 km/h (0 Bft)
10.04.2015 04:05 1,4 C 0,7 C 77 % 1024,1 hPa 0,0 mm 0,0 km/h (0 Bft) O 90 -2,2 C 0,0 km/h (0 Bft)
10.04.2015 04:10 1,2 C 0,6 C 76 % 1024,1 hPa 0,0 mm 0,0 km/h (0 Bft) NW 315 -2,5 C 0,0 km/h (0 Bft)
10.04.2015 04:15 0,9 C 0,3 C 76 % 1024,1 hPa 0,0 mm 0,0 km/h (0 Bft) NW 315 -2,8 C 0,0 km/h (0 Bft)
10.04.2015 04:20 0,7 C 0,2 C 76 % 1024,1 hPa 0,0 mm 0,0 km/h (0 Bft) NW 315 -3,0 C 0,0 km/h (0 Bft)
10.04.2015 04:25 0,6 C 0,1 C 76 % 1024,1 hPa 0,0 mm 0,0 km/h (0 Bft) NW 315 -3,1 C 0,0 km/h (0 Bft)
10.04.2015 04:30 0,7 C 0,2 C 76 % 1024,1 hPa 0,0 mm 0,0 km/h (0 Bft) NW 315 -3,0 C 0,0 km/h (0 Bft)
10.04.2015 04:35 0,5 C 0,1 C 76 % 1024,1 hPa 0,0 mm 0,0 km/h (0 Bft) W-NW 292 -3,2 C 0,0 km/h (0 Bft)
10.04.2015 04:40 0,6 C 0,1 C 77 % 1024,1 hPa 0,0 mm 0,0 km/h (0 Bft) W 270 -3,0 C 0,0 km/h (0 Bft)
10.04.2015 04:45 0,6 C 0,1 C 77 % 1023,9 hPa 0,0 mm 0,0 km/h (0 Bft) O-NO 67 -3,0 C 0,0 km/h (0 Bft)
10.04.2015 04:50 0,6 C 0,2 C 77 % 1023,9 hPa 0,0 mm 0,0 km/h (0 Bft) W-NW 292 -3,0 C 0,0 km/h (0 Bft)
10.04.2015 04:55 0,7 C 0,2 C 77 % 1023,9 hPa 0,0 mm 0,0 km/h (0 Bft) S 180 -2,9 C 0,0 km/h (0 Bft)
10.04.2015 05:00 0,6 C 0,2 C 77 % 1023,9 hPa 0,0 mm 0,0 km/h (0 Bft) W 270 -3,0 C 0,0 km/h (0 Bft)
10.04.2015 05:05 0,6 C 0,2 C 77 % 1023,8 hPa 0,0 mm 0,0 km/h (0 Bft) NW 315 -3,0 C 0,0 km/h (0 Bft)
10.04.2015 05:10 0,6 C 0,2 C 78 % 1023,8 hPa 0,0 mm 0,0 km/h (0 Bft) NW 315 -2,8 C 0,0 km/h (0 Bft)
10.04.2015 05:15 0,7 C 0,3 C 78 % 1023,8 hPa 0,0 mm 0,0 km/h (0 Bft) SW 225 -2,7 C 0,0 km/h (0 Bft)
10.04.2015 05:20 0,8 C 0,3 C 78 % 1023,8 hPa 0,0 mm 0,0 km/h (0 Bft) W-NW 292 -2,6 C 0,0 km/h (0 Bft)
10.04.2015 05:25 0,9 C 0,4 C 78 % 1023,7 hPa 0,0 mm 0,0 km/h (0 Bft) NW 315 -2,5 C 2,6 km/h (1 Bft)
10.04.2015 05:30 1,0 C 0,6 C 78 % 1023,7 hPa 0,0 mm 0,3 km/h (0 Bft) O-SO 112 -2,4 C 0,0 km/h (0 Bft)
10.04.2015 05:35 1,1 C 0,6 C 78 % 1023,7 hPa 0,0 mm 0,3 km/h (0 Bft) NO 45 -2,3 C 5,4 km/h (1 Bft)
10.04.2015 05:40 0,7 C 0,4 C 77 % 1023,7 hPa 0,0 mm 0,0 km/h (0 Bft) N-NO 22 -2,9 C 0,0 km/h (0 Bft)
10.04.2015 05:45 0,7 C 0,4 C 77 % 1023,8 hPa 0,0 mm 0,0 km/h (0 Bft) N-NO 22 -2,9 C 0,0 km/h (0 Bft)
10.04.2015 05:50 0,7 C 0,4 C 77 % 1023,8 hPa 0,0 mm 0,0 km/h (0 Bft) N-NW 337 -2,9 C 0,0 km/h (0 Bft)
10.04.2015 05:55 0,7 C 0,4 C 77 % 1023,8 hPa 0,0 mm 0,0 km/h (0 Bft) N-NO 22 -2,9 C 0,0 km/h (0 Bft)
10.04.2015 06:00 0,6 C 0,3 C 77 % 1023,8 hPa 0,0 mm 0,0 km/h (0 Bft) NW 315 -3,0 C 0,0 km/h (0 Bft)
10.04.2015 06:05 0,6 C 0,3 C 78 % 1023,6 hPa 0,0 mm 0,0 km/h (0 Bft) S-SW 202 -2,8 C 0,0 km/h (0 Bft)
10.04.2015 06:10 0,7 C 0,4 C 78 % 1023,6 hPa 0,0 mm 0,0 km/h (0 Bft) O-SO 112 -2,7 C 0,0 km/h (0 Bft)
10.04.2015 06:15 1,0 C 0,6 C 78 % 1023,6 hPa 0,0 mm 0,0 km/h (0 Bft) N-NO 22 -2,4 C 0,0 km/h (0 Bft)
10.04.2015 06:20 0,9 C 0,6 C 78 % 1023,6 hPa 0,0 mm 0,0 km/h (0 Bft) N-NO 22 -2,5 C 0,0 km/h (0 Bft)
10.04.2015 06:25 0,9 C 0,6 C 77 % 1023,5 hPa 0,0 mm 0,0 km/h (0 Bft) O-NO 67 -2,7 C 0,0 km/h (0 Bft)
10.04.2015 06:30 0,8 C 0,5 C 77 % 1023,5 hPa 0,0 mm 0,0 km/h (0 Bft) N-NO 22 -2,8 C 0,0 km/h (0 Bft)
10.04.2015 06:35 1,0 C 0,7 C 77 % 1023,5 hPa 0,0 mm 0,0 km/h (0 Bft) NW 315 -2,6 C 0,0 km/h (0 Bft)
10.04.2015 06:40 1,2 C 0,9 C 78 % 1023,5 hPa 0,0 mm 0,0 km/h (0 Bft) N-NW 337 -2,2 C 0,0 km/h (0 Bft)
10.04.2015 06:45 1,2 C 0,9 C 78 % 1023,6 hPa 0,0 mm 0,0 km/h (0 Bft) N-NW 337 -2,2 C 0,0 km/h (0 Bft)
10.04.2015 06:50 1,0 C 0,7 C 77 % 1023,6 hPa 0,0 mm 0,0 km/h (0 Bft) N-NW 337 -2,6 C 0,0 km/h (0 Bft)
10.04.2015 06:55 1,1 C 0,8 C 77 % 1023,6 hPa 0,0 mm 0,0 km/h (0 Bft) SO 135 -2,5 C 0,0 km/h (0 Bft)
10.04.2015 07:00 1,1 C 0,8 C 77 % 1023,6 hPa 0,0 mm 0,0 km/h (0 Bft) O-NO 67 -2,5 C 0,0 km/h (0 Bft)
10.04.2015 07:05 1,2 C 1,0 C 77 % 1023,6 hPa 0,0 mm 0,0 km/h (0 Bft) N-NO 22 -2,4 C 0,0 km/h (0 Bft)
10.04.2015 07:10 1,6 C 1,4 C 77 % 1023,6 hPa 0,0 mm 0,0 km/h (0 Bft) O-NO 67 -2,0 C 0,0 km/h (0 Bft)
10.04.2015 07:15 1,8 C 1,7 C 77 % 1023,6 hPa 0,0 mm 0,0 km/h (0 Bft) N-NO 22 -1,8 C 0,0 km/h (0 Bft)
10.04.2015 07:20 1,9 C 1,8 C 77 % 1023,6 hPa 0,0 mm 0,0 km/h (0 Bft) N 360 -1,7 C 0,0 km/h (0 Bft)
10.04.2015 07:25 2,0 C 2,2 C 76 % 1023,6 hPa 0,0 mm 0,0 km/h (0 Bft) N-NO 22 -1,8 C 0,0 km/h (0 Bft)
10.04.2015 07:30 2,3 C 2,5 C 76 % 1023,6 hPa 0,0 mm 0,0 km/h (0 Bft) W 270 -1,5 C 0,0 km/h (0 Bft)
10.04.2015 07:35 2,5 C 2,8 C 76 % 1023,6 hPa 0,0 mm 0,3 km/h (0 Bft) NW 315 -1,3 C 0,0 km/h (0 Bft)
10.04.2015 07:40 2,7 C 3,6 C 76 % 1023,6 hPa 0,0 mm 0,0 km/h (0 Bft) N-NW 337 -1,1 C 0,0 km/h (0 Bft)
10.04.2015 07:45 3,1 C 5,9 C 74 % 1023,6 hPa 0,0 mm 0,0 km/h (0 Bft) N-NW 337 -1,1 C 0,0 km/h (0 Bft)
10.04.2015 07:50 3,5 C 7,2 C 74 % 1023,6 hPa 0,0 mm 0,0 km/h (0 Bft) O-NO 67 -0,7 C 0,0 km/h (0 Bft)
10.04.2015 07:55 4,0 C 9,3 C 73 % 1023,6 hPa 0,0 mm 0,0 km/h (0 Bft) NO 45 -0,4 C 0,0 km/h (0 Bft)
10.04.2015 08:00 4,3 C 10,4 C 69 % 1023,6 hPa 0,0 mm 0,0 km/h (0 Bft) NO 45 -0,9 C 0,0 km/h (0 Bft)
10.04.2015 08:05 4,9 C 12,1 C 69 % 1023,9 hPa 0,0 mm 0,0 km/h (0 Bft) N-NW 337 -0,3 C 0,0 km/h (0 Bft)
10.04.2015 08:10 5,5 C 13,0 C 68 % 1023,9 hPa 0,0 mm 0,0 km/h (0 Bft) NO 45 0,1 C 0,0 km/h (0 Bft)
10.04.2015 08:15 6,5 C 14,2 C 68 % 1023,9 hPa 0,0 mm 0,0 km/h (0 Bft) O-SO 112 1,0 C 0,0 km/h (0 Bft)
10.04.2015 08:20 7,1 C 15,0 C 66 % 1023,9 hPa 0,0 mm 0,0 km/h (0 Bft) O-NO 67 1,2 C 0,0 km/h (0 Bft)
10.04.2015 08:25 7,8 C 16,3 C 63 % 1024,4 hPa 0,0 mm 0,0 km/h (0 Bft) O 90 1,2 C 0,0 km/h (0 Bft)
10.04.2015 08:30 8,4 C 17,1 C 62 % 1024,4 hPa 0,0 mm 0,0 km/h (0 Bft) O-SO 112 1,6 C 0,0 km/h (0 Bft)
10.04.2015 08:35 9,2 C 17,9 C 60 % 1024,4 hPa 0,0 mm 0,0 km/h (0 Bft) O 90 1,8 C 0,0 km/h (0 Bft)
10.04.2015 08:40 9,5 C 18,3 C 59 % 1024,4 hPa 0,0 mm 0,0 km/h (0 Bft) O-NO 67 1,9 C 0,0 km/h (0 Bft)
10.04.2015 08:45 9,9 C 18,7 C 59 % 1024,8 hPa 0,0 mm 0,0 km/h (0 Bft) O 90 2,3 C 0,0 km/h (0 Bft)
10.04.2015 08:50 10,2 C 18,9 C 58 % 1024,8 hPa 0,0 mm 0,0 km/h (0 Bft) O-SO 112 2,3 C 0,0 km/h (0 Bft)
10.04.2015 08:55 10,6 C 19,1 C 58 % 1024,8 hPa 0,0 mm 0,0 km/h (0 Bft) O-NO 67 2,7 C 0,0 km/h (0 Bft)
10.04.2015 09:00 11,0 C 19,7 C 57 % 1024,8 hPa 0,0 mm 0,0 km/h (0 Bft) O-SO 112 2,8 C 0,0 km/h (0 Bft)
10.04.2015 09:05 11,2 C 19,7 C 56 % 1025,0 hPa 0,0 mm 0,0 km/h (0 Bft) O-SO 112 2,8 C 0,0 km/h (0 Bft)
10.04.2015 09:10 11,3 C 20,4 C 56 % 1025,0 hPa 0,0 mm 0,0 km/h (0 Bft) S-SO 157 2,8 C 0,0 km/h (0 Bft)
10.04.2015 09:15 11,7 C 20,9 C 55 % 1025,0 hPa 0,0 mm 0,0 km/h (0 Bft) S-SO 157 3,0 C 0,0 km/h (0 Bft)
10.04.2015 09:20 12,2 C 21,7 C 55 % 1025,0 hPa 0,0 mm 0,0 km/h (0 Bft) SO 135 3,4 C 0,0 km/h (0 Bft)
10.04.2015 09:25 12,6 C 22,2 C 55 % 1025,2 hPa 0,0 mm 0,0 km/h (0 Bft) S-SW 202 3,8 C 0,0 km/h (0 Bft)
10.04.2015 09:30 12,8 C 23,1 C 55 % 1025,2 hPa 0,0 mm 0,0 km/h (0 Bft) S 180 4,0 C 0,0 km/h (0 Bft)
10.04.2015 09:35 13,3 C 24,6 C 53 % 1025,2 hPa 0,0 mm 0,0 km/h (0 Bft) SO 135 3,9 C 0,0 km/h (0 Bft)
10.04.2015 09:40 13,6 C 24,6 C 53 % 1025,2 hPa 0,0 mm 0,0 km/h (0 Bft) SO 135 4,2 C 0,0 km/h (0 Bft)
10.04.2015 09:45 14,6 C 24,9 C 52 % 1025,8 hPa 0,0 mm 0,0 km/h (0 Bft) NW 315 4,9 C 0,0 km/h (0 Bft)
10.04.2015 09:50 14,5 C 25,6 C 49 % 1025,8 hPa 0,0 mm 0,0 km/h (0 Bft) SW 225 3,9 C 0,0 km/h (0 Bft)
10.04.2015 09:55 14,4 C 25,4 C 49 % 1025,8 hPa 0,0 mm 0,3 km/h (0 Bft) W-SW 247 3,8 C 0,0 km/h (0 Bft)
10.04.2015 10:00 14,6 C 25,4 C 49 % 1025,8 hPa 0,0 mm 0,3 km/h (0 Bft) S 180 4,0 C 0,0 km/h (0 Bft)
10.04.2015 10:05 14,7 C 25,0 C 48 % 1025,6 hPa 0,0 mm 0,5 km/h (0 Bft) SW 225 3,8 C 0,0 km/h (0 Bft)
10.04.2015 10:10 15,1 C 24,9 C 48 % 1025,6 hPa 0,0 mm 0,3 km/h (0 Bft) N-NO 22 4,2 C 0,0 km/h (0 Bft)
10.04.2015 10:15 15,9 C 25,6 C 48 % 1025,6 hPa 0,0 mm 0,0 km/h (0 Bft) S 180 4,9 C 0,0 km/h (0 Bft)
10.04.2015 10:20 16,0 C 25,6 C 46 % 1025,6 hPa 0,0 mm 0,5 km/h (0 Bft) W 270 4,4 C 5,2 km/h (1 Bft)
10.04.2015 10:25 16,7 C 24,4 C 45 % 1025,6 hPa 0,0 mm 4,4 km/h (1 Bft) W-SW 247 4,7 C 16,6 km/h (3 Bft)
10.04.2015 10:30 16,8 C 23,4 C 44 % 1025,6 hPa 0,0 mm 7,3 km/h (2 Bft) W 270 4,5 C 8,3 km/h (2 Bft)
10.04.2015 10:35 16,7 C 21,9 C 41 % 1025,6 hPa 0,0 mm 11,1 km/h (2 Bft) W-NW 292 3,4 C 18,9 km/h (3 Bft)
10.04.2015 10:40 16,9 C 21,6 C 41 % 1025,6 hPa 0,0 mm 11,1 km/h (2 Bft) NW 315 3,6 C 12,2 km/h (2 Bft)
10.04.2015 10:45 17,2 C 21,8 C 41 % 1026,1 hPa 0,0 mm 8,5 km/h (2 Bft) W 270 3,8 C 15,0 km/h (3 Bft)
10.04.2015 10:50 17,4 C 21,8 C 40 % 1026,1 hPa 0,0 mm 9,6 km/h (2 Bft) W 270 3,7 C 16,1 km/h (3 Bft)
10.04.2015 10:55 17,3 C 21,4 C 39 % 1026,1 hPa 0,0 mm 10,9 km/h (2 Bft) NW 315 3,2 C 6,5 km/h (2 Bft)
10.04.2015 11:00 17,4 C 21,4 C 39 % 1026,1 hPa 0,0 mm 11,4 km/h (2 Bft) W-SW 247 3,3 C 14,0 km/h (3 Bft)
10.04.2015 11:05 17,7 C 21,5 C 39 % 1026,2 hPa 0,0 mm 10,4 km/h (2 Bft) NW 315 3,6 C 11,4 km/h (2 Bft)
10.04.2015 11:10 17,9 C 21,6 C 39 % 1026,2 hPa 0,0 mm 10,4 km/h (2 Bft) W 270 3,8 C 9,8 km/h (2 Bft)
10.04.2015 11:15 18,2 C 21,9 C 38 % 1026,2 hPa 0,0 mm 9,6 km/h (2 Bft) W 270 3,7 C 14,0 km/h (3 Bft)
10.04.2015 11:20 18,2 C 22,0 C 38 % 1026,2 hPa 0,0 mm 8,8 km/h (2 Bft) NW 315 3,7 C 10,4 km/h (2 Bft)
10.04.2015 11:25 18,3 C 22,1 C 38 % 1026,2 hPa 0,0 mm 9,6 km/h (2 Bft) W 270 3,7 C 12,2 km/h (2 Bft)
10.04.2015 11:30 18,2 C 22,0 C 36 % 1026,2 hPa 0,0 mm 10,4 km/h (2 Bft) W 270 2,9 C 8,8 km/h (2 Bft)
10.04.2015 11:35 18,5 C 21,9 C 36 % 1026,2 hPa 0,0 mm 11,1 km/h (2 Bft) W-NW 292 3,2 C 19,2 km/h (3 Bft)
10.04.2015 11:40 18,5 C 21,8 C 36 % 1026,2 hPa 0,0 mm 10,9 km/h (2 Bft) N-NO 22 3,2 C 10,4 km/h (2 Bft)
10.04.2015 11:45 18,3 C 22,0 C 36 % 1026,1 hPa 0,0 mm 10,6 km/h (2 Bft) N-NW 337 3,0 C 19,9 km/h (4 Bft)
10.04.2015 11:50 18,4 C 22,0 C 35 % 1026,1 hPa 0,0 mm 10,9 km/h (2 Bft) W 270 2,7 C 8,5 km/h (2 Bft)
10.04.2015 11:55 18,6 C 22,0 C 35 % 1026,1 hPa 0,0 mm 11,4 km/h (2 Bft) NW 315 2,8 C 22,0 km/h (4 Bft)
10.04.2015 12:00 18,7 C 22,0 C 35 % 1026,1 hPa 0,0 mm 10,9 km/h (2 Bft) SO 135 2,9 C 11,7 km/h (2 Bft)
10.04.2015 12:05 19,0 C 22,4 C 36 % 1026,2 hPa 0,0 mm 10,1 km/h (2 Bft) NW 315 3,6 C 14,0 km/h (3 Bft)
10.04.2015 12:10 19,0 C 22,9 C 36 % 1026,2 hPa 0,0 mm 9,1 km/h (2 Bft) W 270 3,6 C 10,6 km/h (2 Bft)
10.04.2015 12:15 19,1 C 22,7 C 36 % 1026,2 hPa 0,0 mm 9,3 km/h (2 Bft) W-SW 247 3,7 C 26,2 km/h (4 Bft)
10.04.2015 12:20 19,3 C 22,8 C 36 % 1026,2 hPa 0,0 mm 9,8 km/h (2 Bft) W-NW 292 3,9 C 17,1 km/h (3 Bft)
10.04.2015 12:25 19,2 C 22,7 C 35 % 1026,4 hPa 0,0 mm 9,8 km/h (2 Bft) W 270 3,4 C 10,6 km/h (2 Bft)
10.04.2015 12:30 19,3 C 23,1 C 36 % 1026,4 hPa 0,0 mm 9,6 km/h (2 Bft) NW 315 3,9 C 11,4 km/h (2 Bft)
10.04.2015 12:35 19,5 C 23,3 C 35 % 1026,4 hPa 0,0 mm 8,8 km/h (2 Bft) W 270 3,6 C 15,0 km/h (3 Bft)
10.04.2015 12:40 19,3 C 23,2 C 34 % 1026,4 hPa 0,0 mm 10,1 km/h (2 Bft) W-SW 247 3,0 C 12,7 km/h (3 Bft)
10.04.2015 12:45 19,5 C 23,0 C 34 % 1026,1 hPa 0,0 mm 11,1 km/h (2 Bft) W-SW 247 3,2 C 15,0 km/h (3 Bft)
10.04.2015 12:50 19,4 C 23,0 C 33 % 1026,1 hPa 0,0 mm 11,7 km/h (2 Bft) NW 315 2,7 C 15,3 km/h (3 Bft)
10.04.2015 12:55 19,5 C 22,8 C 32 % 1026,1 hPa 0,0 mm 11,9 km/h (2 Bft) W 270 2,4 C 17,3 km/h (3 Bft)
10.04.2015 13:00 19,5 C 22,2 C 31 % 1026,1 hPa 0,0 mm 13,2 km/h (3 Bft) W-NW 292 1,9 C 21,8 km/h (4 Bft)
10.04.2015 13:05 19,7 C 21,4 C 32 % 1026,0 hPa 0,0 mm 14,0 km/h (3 Bft) W 270 2,5 C 9,3 km/h (2 Bft)
10.04.2015 13:10 19,9 C 21,5 C 33 % 1026,0 hPa 0,0 mm 12,7 km/h (3 Bft) NW 315 3,2 C 7,8 km/h (2 Bft)
10.04.2015 13:15 20,1 C 21,7 C 33 % 1026,0 hPa 0,0 mm 8,8 km/h (2 Bft) W-NW 292 3,3 C 2,6 km/h (1 Bft)
10.04.2015 13:20 20,2 C 21,9 C 33 % 1026,0 hPa 0,0 mm 8,5 km/h (2 Bft) NW 315 3,4 C 12,2 km/h (2 Bft)
10.04.2015 13:25 20,6 C 22,5 C 34 % 1025,6 hPa 0,0 mm 8,5 km/h (2 Bft) S 180 4,2 C 10,4 km/h (2 Bft)
10.04.2015 13:30 20,8 C 22,7 C 34 % 1025,6 hPa 0,0 mm 9,1 km/h (2 Bft) W 270 4,4 C 17,1 km/h (3 Bft)
10.04.2015 13:35 20,9 C 23,5 C 33 % 1025,6 hPa 0,0 mm 8,8 km/h (2 Bft) W 270 4,0 C 11,1 km/h (2 Bft)
10.04.2015 13:40 20,9 C 23,6 C 33 % 1025,6 hPa 0,0 mm 9,3 km/h (2 Bft) N-NW 337 4,0 C 11,1 km/h (2 Bft)
10.04.2015 13:45 20,8 C 23,5 C 32 % 1025,3 hPa 0,0 mm 10,9 km/h (2 Bft) N 360 3,5 C 9,3 km/h (2 Bft)
10.04.2015 13:50 20,8 C 23,6 C 32 % 1025,3 hPa 0,0 mm 11,7 km/h (2 Bft) NW 315 3,5 C 16,3 km/h (3 Bft)
10.04.2015 13:55 20,7 C 23,8 C 32 % 1025,3 hPa 0,0 mm 8,5 km/h (2 Bft) W 270 3,4 C 18,6 km/h (3 Bft)
10.04.2015 14:00 20,8 C 23,9 C 31 % 1025,3 hPa 0,0 mm 10,4 km/h (2 Bft) NW 315 3,1 C 15,0 km/h (3 Bft)
10.04.2015 14:05 20,6 C 24,0 C 31 % 1024,9 hPa 0,0 mm 11,1 km/h (2 Bft) NW 315 2,9 C 18,6 km/h (3 Bft)
10.04.2015 14:10 20,7 C 24,0 C 31 % 1024,9 hPa 0,0 mm 10,1 km/h (2 Bft) W-SW 247 3,0 C 13,5 km/h (3 Bft)
10.04.2015 14:15 20,7 C 23,9 C 31 % 1024,9 hPa 0,0 mm 11,4 km/h (2 Bft) W 270 3,0 C 9,3 km/h (2 Bft)
10.04.2015 14:20 20,8 C 24,1 C 31 % 1024,9 hPa 0,0 mm 9,6 km/h (2 Bft) NW 315 3,1 C 5,4 km/h (1 Bft)
10.04.2015 14:25 21,0 C 24,4 C 31 % 1024,4 hPa 0,0 mm 8,0 km/h (2 Bft) W 270 3,2 C 18,9 km/h (3 Bft)
10.04.2015 14:30 21,0 C 24,1 C 31 % 1024,4 hPa 0,0 mm 9,1 km/h (2 Bft) N-NO 22 3,2 C 17,1 km/h (3 Bft)
10.04.2015 14:35 21,2 C 24,2 C 31 % 1024,4 hPa 0,0 mm 9,1 km/h (2 Bft) NW 315 3,4 C 2,8 km/h (1 Bft)
10.04.2015 14:40 21,3 C 24,7 C 31 % 1024,4 hPa 0,0 mm 9,1 km/h (2 Bft) W 270 3,5 C 19,9 km/h (4 Bft)
10.04.2015 14:45 20,9 C 24,2 C 31 % 1023,9 hPa 0,0 mm 8,3 km/h (2 Bft) N 360 3,1 C 28,2 km/h (4 Bft)
10.04.2015 14:50 21,1 C 24,4 C 30 % 1023,9 hPa 0,0 mm 8,8 km/h (2 Bft) W-NW 292 2,8 C 11,1 km/h (2 Bft)
10.04.2015 14:55 21,0 C 24,0 C 30 % 1023,9 hPa 0,0 mm 9,3 km/h (2 Bft) W-NW 292 2,8 C 12,2 km/h (2 Bft)
10.04.2015 15:00 21,0 C 23,7 C 30 % 1023,9 hPa 0,0 mm 10,6 km/h (2 Bft) N-NW 337 2,8 C 12,7 km/h (3 Bft)
10.04.2015 15:05 21,0 C 24,0 C 29 % 1023,2 hPa 0,0 mm 9,6 km/h (2 Bft) N-NW 337 2,3 C 16,1 km/h (3 Bft)
10.04.2015 15:10 21,0 C 23,9 C 29 % 1023,2 hPa 0,0 mm 9,1 km/h (2 Bft) N-NW 337 2,3 C 15,0 km/h (3 Bft)
10.04.2015 15:15 21,1 C 23,6 C 29 % 1023,2 hPa 0,0 mm 11,1 km/h (2 Bft) NW 315 2,4 C 18,4 km/h (3 Bft)
10.04.2015 15:20 21,1 C 23,4 C 29 % 1023,2 hPa 0,0 mm 11,9 km/h (2 Bft) N-NW 337 2,4 C 8,8 km/h (2 Bft)
10.04.2015 15:25 21,1 C 23,7 C 29 % 1022,9 hPa 0,0 mm 10,6 km/h (2 Bft) NW 315 2,4 C 15,0 km/h (3 Bft)
10.04.2015 15:30 21,1 C 23,8 C 30 % 1022,9 hPa 0,0 mm 9,8 km/h (2 Bft) N-NW 337 2,8 C 11,7 km/h (2 Bft)
10.04.2015 15:35 20,9 C 23,7 C 28 % 1022,9 hPa 0,0 mm 10,1 km/h (2 Bft) O-NO 67 1,7 C 5,4 km/h (1 Bft)
10.04.2015 15:40 20,8 C 24,3 C 29 % 1022,9 hPa 0,0 mm 7,0 km/h (2 Bft) NO 45 2,1 C 12,4 km/h (3 Bft)
10.04.2015 15:45 20,8 C 24,0 C 30 % 1022,6 hPa 0,0 mm 7,5 km/h (2 Bft) NW 315 2,6 C 10,4 km/h (2 Bft)
10.04.2015 15:50 21,0 C 23,8 C 30 % 1022,6 hPa 0,0 mm 10,4 km/h (2 Bft) NW 315 2,8 C 10,9 km/h (2 Bft)
10.04.2015 15:55 21,0 C 24,0 C 29 % 1022,6 hPa 0,0 mm 7,8 km/h (2 Bft) NW 315 2,3 C 9,3 km/h (2 Bft)
10.04.2015 16:00 21,1 C 24,1 C 30 % 1022,6 hPa 0,0 mm 8,3 km/h (2 Bft) N-NW 337 2,8 C 9,1 km/h (2 Bft)
10.04.2015 16:05 21,0 C 24,1 C 29 % 1022,3 hPa 0,0 mm 7,3 km/h (2 Bft) N-NW 337 2,3 C 3,4 km/h (1 Bft)
10.04.2015 16:10 21,0 C 24,3 C 27 % 1022,3 hPa 0,0 mm 5,2 km/h (1 Bft) N-NO 22 1,3 C 7,3 km/h (2 Bft)
10.04.2015 16:15 20,9 C 24,2 C 30 % 1022,3 hPa 0,0 mm 5,7 km/h (1 Bft) N-NW 337 2,7 C 12,4 km/h (3 Bft)
10.04.2015 16:20 20,9 C 24,3 C 30 % 1022,3 hPa 0,0 mm 7,0 km/h (2 Bft) NW 315 2,7 C 9,6 km/h (2 Bft)
10.04.2015 16:25 20,7 C 24,3 C 29 % 1022,1 hPa 0,0 mm 7,3 km/h (2 Bft) N-NO 22 2,0 C 8,0 km/h (2 Bft)
10.04.2015 16:30 20,4 C 24,3 C 29 % 1022,1 hPa 0,0 mm 6,5 km/h (2 Bft) O-NO 67 1,8 C 6,2 km/h (2 Bft)
10.04.2015 16:35 20,4 C 24,3 C 29 % 1022,1 hPa 0,0 mm 5,7 km/h (1 Bft) NO 45 1,8 C 7,8 km/h (2 Bft)
10.04.2015 16:40 20,2 C 24,0 C 29 % 1022,1 hPa 0,0 mm 7,5 km/h (2 Bft) N-NO 22 1,6 C 11,7 km/h (2 Bft)
10.04.2015 16:45 20,1 C 23,4 C 30 % 1021,9 hPa 0,0 mm 8,3 km/h (2 Bft) N-NW 337 2,0 C 10,4 km/h (2 Bft)
10.04.2015 16:50 20,1 C 23,2 C 30 % 1021,9 hPa 0,0 mm 6,5 km/h (2 Bft) N-NW 337 2,0 C 0,0 km/h (0 Bft)
10.04.2015 16:55 19,9 C 22,9 C 30 % 1021,9 hPa 0,0 mm 4,7 km/h (1 Bft) NO 45 1,8 C 6,0 km/h (2 Bft)
10.04.2015 17:00 19,8 C 22,5 C 29 % 1021,9 hPa 0,0 mm 4,4 km/h (1 Bft) NO 45 1,3 C 3,4 km/h (1 Bft)
10.04.2015 17:05 19,6 C 22,1 C 30 % 1021,8 hPa 0,0 mm 5,7 km/h (1 Bft) N-NW 337 1,6 C 10,6 km/h (2 Bft)
10.04.2015 17:10 19,7 C 21,7 C 30 % 1021,8 hPa 0,0 mm 5,7 km/h (1 Bft) NW 315 1,6 C 7,0 km/h (2 Bft)
10.04.2015 17:15 19,7 C 21,7 C 30 % 1021,8 hPa 0,0 mm 6,0 km/h (2 Bft) O-NO 67 1,6 C 9,3 km/h (2 Bft)
10.04.2015 17:20 19,5 C 21,3 C 30 % 1021,8 hPa 0,0 mm 4,9 km/h (1 Bft) NW 315 1,5 C 8,0 km/h (2 Bft)
10.04.2015 17:25 19,5 C 21,2 C 30 % 1021,6 hPa 0,0 mm 5,4 km/h (1 Bft) W-NW 292 1,5 C 2,6 km/h (1 Bft)
10.04.2015 17:30 19,5 C 21,1 C 30 % 1021,6 hPa 0,0 mm 5,7 km/h (1 Bft) W 270 1,5 C 5,4 km/h (1 Bft)
10.04.2015 17:35 19,5 C 21,1 C 30 % 1021,6 hPa 0,0 mm 6,7 km/h (2 Bft) NW 315 1,5 C 10,6 km/h (2 Bft)
10.04.2015 17:40 19,5 C 20,8 C 30 % 1021,6 hPa 0,0 mm 7,5 km/h (2 Bft) W-NW 292 1,5 C 9,1 km/h (2 Bft)
10.04.2015 17:45 19,3 C 20,5 C 30 % 1021,3 hPa 0,0 mm 7,5 km/h (2 Bft) NO 45 1,3 C 5,4 km/h (1 Bft)
10.04.2015 17:50 19,2 C 20,6 C 30 % 1021,3 hPa 0,0 mm 5,7 km/h (1 Bft) NW 315 1,2 C 2,8 km/h (1 Bft)
10.04.2015 17:55 19,3 C 20,8 C 30 % 1021,3 hPa 0,0 mm 4,4 km/h (1 Bft) W 270 1,3 C 7,0 km/h (2 Bft)
10.04.2015 18:00 19,2 C 20,7 C 30 % 1021,3 hPa 0,0 mm 5,2 km/h (1 Bft) NW 315 1,2 C 7,5 km/h (2 Bft)
10.04.2015 18:05 18,9 C 20,3 C 30 % 1021,2 hPa 0,0 mm 3,9 km/h (1 Bft) NO 45 1,0 C 0,0 km/h (0 Bft)
10.04.2015 18:10 18,8 C 20,1 C 31 % 1021,2 hPa 0,0 mm 3,1 km/h (1 Bft) N-NO 22 1,3 C 6,5 km/h (2 Bft)
10.04.2015 18:15 18,5 C 19,9 C 31 % 1021,2 hPa 0,0 mm 3,1 km/h (1 Bft) N 360 1,1 C 0,0 km/h (0 Bft)
10.04.2015 18:20 18,3 C 19,8 C 31 % 1021,2 hPa 0,0 mm 6,0 km/h (2 Bft) N-NO 22 0,9 C 14,5 km/h (3 Bft)
10.04.2015 18:25 18,4 C 19,4 C 31 % 1021,2 hPa 0,0 mm 7,5 km/h (2 Bft) N-NW 337 1,0 C 7,0 km/h (2 Bft)
10.04.2015 18:30 18,3 C 19,2 C 31 % 1021,2 hPa 0,0 mm 7,0 km/h (2 Bft) N-NO 22 0,9 C 0,0 km/h (0 Bft)
10.04.2015 18:35 17,9 C 18,9 C 32 % 1021,2 hPa 0,0 mm 4,9 km/h (1 Bft) N-NO 22 1,0 C 9,8 km/h (2 Bft)
10.04.2015 18:40 18,0 C 18,8 C 31 % 1021,2 hPa 0,0 mm 6,0 km/h (2 Bft) N-NO 22 0,6 C 9,3 km/h (2 Bft)
10.04.2015 18:45 17,9 C 18,5 C 31 % 1021,1 hPa 0,0 mm 6,7 km/h (2 Bft) N-NO 22 0,5 C 4,7 km/h (1 Bft)
10.04.2015 18:50 17,7 C 18,3 C 32 % 1021,1 hPa 0,0 mm 4,7 km/h (1 Bft) N 360 0,8 C 0,0 km/h (0 Bft)
10.04.2015 18:55 17,5 C 18,1 C 32 % 1021,1 hPa 0,0 mm 4,1 km/h (1 Bft) O-NO 67 0,6 C 5,2 km/h (1 Bft)
10.04.2015 19:00 17,5 C 18,0 C 31 % 1021,1 hPa 0,0 mm 5,4 km/h (1 Bft) N-NO 22 0,2 C 7,3 km/h (2 Bft)
10.04.2015 19:05 17,0 C 17,6 C 32 % 1021,1 hPa 0,0 mm 3,9 km/h (1 Bft) O-NO 67 0,2 C 4,9 km/h (1 Bft)
10.04.2015 19:10 16,8 C 17,5 C 32 % 1021,1 hPa 0,0 mm 2,6 km/h (1 Bft) O-NO 67 0,0 C 0,0 km/h (0 Bft)
10.04.2015 19:15 16,4 C 17,1 C 32 % 1021,1 hPa 0,0 mm 1,0 km/h (0 Bft) O-NO 67 -0,3 C 0,0 km/h (0 Bft)
10.04.2015 19:20 16,3 C 16,7 C 33 % 1021,1 hPa 0,0 mm 0,5 km/h (0 Bft) O-NO 67 0,0 C 0,0 km/h (0 Bft)
10.04.2015 19:25 16,0 C 16,2 C 33 % 1021,0 hPa 0,0 mm 0,3 km/h (0 Bft) O 90 -0,3 C 0,0 km/h (0 Bft)
10.04.2015 19:30 15,9 C 15,9 C 33 % 1021,0 hPa 0,0 mm 0,3 km/h (0 Bft) O-SO 112 -0,3 C 0,0 km/h (0 Bft)
10.04.2015 19:35 15,5 C 15,4 C 33 % 1021,0 hPa 0,0 mm 0,0 km/h (0 Bft) SO 135 -0,7 C 0,0 km/h (0 Bft)
10.04.2015 19:40 15,3 C 15,2 C 33 % 1021,0 hPa 0,0 mm 0,3 km/h (0 Bft) SO 135 -0,9 C 2,8 km/h (1 Bft)
10.04.2015 19:45 14,9 C 14,8 C 34 % 1020,8 hPa 0,0 mm 1,0 km/h (0 Bft) SO 135 -0,8 C 2,6 km/h (1 Bft)
10.04.2015 19:50 14,6 C 14,6 C 35 % 1020,8 hPa 0,0 mm 1,6 km/h (1 Bft) S-SO 157 -0,7 C 2,8 km/h (1 Bft)
10.04.2015 19:55 14,1 C 14,1 C 39 % 1020,8 hPa 0,0 mm 1,6 km/h (1 Bft) S-SO 157 0,4 C 3,6 km/h (1 Bft)
10.04.2015 20:00 13,6 C 13,9 C 41 % 1020,8 hPa 0,0 mm 2,1 km/h (1 Bft) S-SO 157 0,6 C 3,9 km/h (1 Bft)
10.04.2015 20:05 13,2 C 13,4 C 44 % 1021,1 hPa 0,0 mm 4,1 km/h (1 Bft) S 180 1,2 C 4,9 km/h (1 Bft)
10.04.2015 20:10 13,1 C 13,2 C 45 % 1021,1 hPa 0,0 mm 4,4 km/h (1 Bft) SO 135 1,4 C 0,0 km/h (0 Bft)
10.04.2015 20:15 12,4 C 12,7 C 47 % 1021,1 hPa 0,0 mm 2,6 km/h (1 Bft) S-SO 157 1,4 C 0,0 km/h (0 Bft)
10.04.2015 20:20 12,2 C 12,3 C 48 % 1021,1 hPa 0,0 mm 1,6 km/h (1 Bft) S-SO 157 1,5 C 3,1 km/h (1 Bft)
10.04.2015 20:25 11,8 C 11,8 C 50 % 1021,1 hPa 0,0 mm 2,1 km/h (1 Bft) S-SO 157 1,7 C 3,6 km/h (1 Bft)
10.04.2015 20:30 11,3 C 11,4 C 52 % 1021,1 hPa 0,0 mm 2,3 km/h (1 Bft) S-SO 157 1,8 C 2,8 km/h (1 Bft)
10.04.2015 20:35 11,0 C 11,0 C 53 % 1021,1 hPa 0,0 mm 2,8 km/h (1 Bft) S-SO 157 1,8 C 5,2 km/h (1 Bft)
10.04.2015 20:40 10,8 C 10,7 C 55 % 1021,1 hPa 0,0 mm 2,8 km/h (1 Bft) SO 135 2,1 C 0,0 km/h (0 Bft)
10.04.2015 20:45 10,4 C 10,3 C 56 % 1021,1 hPa 0,0 mm 1,6 km/h (1 Bft) S-SO 157 2,0 C 0,0 km/h (0 Bft)
10.04.2015 20:50 10,3 C 10,1 C 56 % 1021,1 hPa 0,0 mm 0,3 km/h (0 Bft) SO 135 1,9 C 0,0 km/h (0 Bft)
10.04.2015 20:55 10,3 C 10,0 C 56 % 1021,1 hPa 0,0 mm 0,3 km/h (0 Bft) SO 135 1,9 C 0,0 km/h (0 Bft)
10.04.2015 21:00 10,2 C 9,9 C 56 % 1021,1 hPa 0,0 mm 0,0 km/h (0 Bft) SO 135 1,8 C 0,0 km/h (0 Bft)
10.04.2015 21:05 10,1 C 9,7 C 55 % 1021,0 hPa 0,0 mm 0,0 km/h (0 Bft) SO 135 1,5 C 0,0 km/h (0 Bft)
10.04.2015 21:10 10,0 C 9,6 C 54 % 1021,0 hPa 0,0 mm 0,0 km/h (0 Bft) O-SO 112 1,1 C 0,0 km/h (0 Bft)
10.04.2015 21:15 9,7 C 9,3 C 54 % 1021,0 hPa 0,0 mm 0,0 km/h (0 Bft) O-SO 112 0,9 C 0,0 km/h (0 Bft)
10.04.2015 21:20 9,2 C 8,9 C 55 % 1021,0 hPa 0,0 mm 0,0 km/h (0 Bft) S 180 0,6 C 0,0 km/h (0 Bft)
10.04.2015 21:25 9,0 C 8,7 C 55 % 1021,1 hPa 0,0 mm 0,0 km/h (0 Bft) SO 135 0,5 C 0,0 km/h (0 Bft)
10.04.2015 21:30 8,8 C 8,5 C 55 % 1021,1 hPa 0,0 mm 0,0 km/h (0 Bft) SO 135 0,3 C 0,0 km/h (0 Bft)
10.04.2015 21:35 8,5 C 8,2 C 56 % 1021,1 hPa 0,0 mm 0,0 km/h (0 Bft) SO 135 0,2 C 0,0 km/h (0 Bft)
10.04.2015 21:40 8,7 C 8,3 C 57 % 1021,1 hPa 0,0 mm 0,0 km/h (0 Bft) S 180 0,7 C 0,0 km/h (0 Bft)
10.04.2015 21:45 8,6 C 8,2 C 57 % 1021,0 hPa 0,0 mm 0,0 km/h (0 Bft) S-SO 157 0,6 C 0,0 km/h (0 Bft)
10.04.2015 21:50 8,6 C 8,1 C 57 % 1021,0 hPa 0,0 mm 0,0 km/h (0 Bft) SO 135 0,6 C 0,0 km/h (0 Bft)
10.04.2015 21:55 8,1 C 7,8 C 57 % 1021,0 hPa 0,0 mm 0,0 km/h (0 Bft) SO 135 0,1 C 0,0 km/h (0 Bft)
10.04.2015 22:00 8,1 C 7,7 C 58 % 1021,0 hPa 0,0 mm 0,0 km/h (0 Bft) O-SO 112 0,3 C 0,0 km/h (0 Bft)
10.04.2015 22:05 7,6 C 7,4 C 57 % 1021,1 hPa 0,0 mm 0,0 km/h (0 Bft) O-SO 112 -0,4 C 0,0 km/h (0 Bft)
10.04.2015 22:10 7,6 C 7,3 C 58 % 1021,1 hPa 0,0 mm 0,0 km/h (0 Bft) O-SO 112 -0,1 C 0,0 km/h (0 Bft)
10.04.2015 22:15 7,6 C 7,3 C 58 % 1021,1 hPa 0,0 mm 0,0 km/h (0 Bft) O-SO 112 -0,1 C 0,0 km/h (0 Bft)
10.04.2015 22:20 7,5 C 7,2 C 58 % 1021,1 hPa 0,0 mm 0,0 km/h (0 Bft) O-SO 112 -0,2 C 0,0 km/h (0 Bft)
10.04.2015 22:25 7,3 C 7,0 C 58 % 1021,1 hPa 0,0 mm 0,0 km/h (0 Bft) O-SO 112 -0,4 C 0,0 km/h (0 Bft)
10.04.2015 22:30 7,3 C 7,0 C 58 % 1021,1 hPa 0,0 mm 0,0 km/h (0 Bft) O-SO 112 -0,4 C 0,0 km/h (0 Bft)
10.04.2015 22:35 7,3 C 6,9 C 59 % 1021,1 hPa 0,0 mm 0,0 km/h (0 Bft) O-SO 112 -0,2 C 0,0 km/h (0 Bft)
10.04.2015 22:40 6,8 C 6,6 C 59 % 1021,1 hPa 0,0 mm 0,0 km/h (0 Bft) O-SO 112 -0,6 C 0,0 km/h (0 Bft)
10.04.2015 22:45 6,5 C 6,3 C 59 % 1021,1 hPa 0,0 mm 0,0 km/h (0 Bft) O-SO 112 -0,9 C 0,0 km/h (0 Bft)
10.04.2015 22:50 6,4 C 6,2 C 59 % 1021,1 hPa 0,0 mm 0,0 km/h (0 Bft) O-SO 112 -1,0 C 0,0 km/h (0 Bft)
10.04.2015 22:55 6,5 C 6,1 C 60 % 1021,1 hPa 0,0 mm 0,0 km/h (0 Bft) O-SO 112 -0,7 C 0,0 km/h (0 Bft)
10.04.2015 23:00 6,4 C 6,0 C 60 % 1021,1 hPa 0,0 mm 0,0 km/h (0 Bft) O-SO 112 -0,8 C 0,0 km/h (0 Bft)
10.04.2015 23:05 6,1 C 5,8 C 60 % 1021,0 hPa 0,0 mm 0,0 km/h (0 Bft) O-SO 112 -1,1 C 0,0 km/h (0 Bft)
10.04.2015 23:10 5,8 C 5,6 C 60 % 1021,0 hPa 0,0 mm 0,0 km/h (0 Bft) O-SO 112 -1,4 C 0,0 km/h (0 Bft)
10.04.2015 23:15 6,1 C 5,7 C 60 % 1021,0 hPa 0,0 mm 0,0 km/h (0 Bft) O-SO 112 -1,1 C 0,0 km/h (0 Bft)
10.04.2015 23:20 5,7 C 5,4 C 61 % 1021,0 hPa 0,0 mm 0,0 km/h (0 Bft) O-SO 112 -1,2 C 0,0 km/h (0 Bft)
10.04.2015 23:25 5,6 C 5,3 C 61 % 1021,0 hPa 0,0 mm 0,0 km/h (0 Bft) O-SO 112 -1,3 C 0,0 km/h (0 Bft)
10.04.2015 23:30 5,8 C 5,4 C 62 % 1021,0 hPa 0,0 mm 0,0 km/h (0 Bft) O-SO 112 -0,9 C 0,0 km/h (0 Bft)
10.04.2015 23:35 6,0 C 5,6 C 62 % 1021,0 hPa 0,0 mm 0,0 km/h (0 Bft) O-SO 112 -0,7 C 2,6 km/h (1 Bft)
10.04.2015 23:40 5,9 C 5,6 C 63 % 1021,0 hPa 0,0 mm 0,3 km/h (0 Bft) O-NO 67 -0,6 C 0,0 km/h (0 Bft)
10.04.2015 23:45 5,6 C 5,3 C 63 % 1020,9 hPa 0,0 mm 0,3 km/h (0 Bft) O-NO 67 -0,9 C 0,0 km/h (0 Bft)
10.04.2015 23:50 5,7 C 5,3 C 64 % 1020,9 hPa 0,0 mm 0,0 km/h (0 Bft) O-NO 67 -0,6 C 0,0 km/h (0 Bft)
10.04.2015 23:55 5,6 C 5,3 C 64 % 1020,9 hPa 0,0 mm 0,0 km/h (0 Bft) O-NO 67 -0,7 C 0,0 km/h (0 Bft)
_ Min-Zeit 04:35 04:45 16:10 20:00 - 23:55 - - 04:35 23:55
Minimum _ 0,5 C 0,1 C 27 % 1020,8 hPa - 0,0 km/h (0 Bft) - - -3,2 C 0,0 km/h (0 Bft)
_ Max-Zeit 14:40 10:20 06:45 12:40 23:55 13:05 - - 10:15 14:45
Maximum _ 21,3 C 25,6 C 78 % 1026,4 hPa 0,0 mm 14,0 km/h
W (3 Bft)
- - 4,9 C 28,2 km/h
N (4 Bft)
Durchschnitt _ 10,7 C 12,5 C 53 % 1023,5 hPa #0,0 mm 3,2 km/h (1 Bft) NW - 0,4 C 4,2 km/h (1 Bft)